TimePDT,TemperatureF,Dew PointF,Humidity,Sea Level PressureIn,VisibilityMPH,Wind Direction,Wind SpeedMPH,Gust SpeedMPH,PrecipitationIn,Events,Conditions,WindDirDegrees,DateUTC
12:53 AM,55.9,55.0,97,29.98,4.0,Calm,Calm,-,N/A,,Overcast,0,2013-08-22 07:53:00
1:53 AM,55.9,55.0,97,29.96,9.0,Calm,Calm,-,N/A,,Overcast,0,2013-08-22 08:53:00
2:53 AM,55.9,54.0,93,29.95,10.0,WNW,3.5,-,N/A,,Overcast,290,2013-08-22 09:53:00
3:53 AM,55.0,55.0,100,29.95,6.0,Calm,Calm,-,N/A,,Overcast,0,2013-08-22 10:53:00
4:53 AM,55.0,54.0,96,29.94,10.0,Calm,Calm,-,N/A,,Overcast,0,2013-08-22 11:53:00
5:53 AM,55.0,54.0,96,29.94,6.0,Calm,Calm,-,N/A,,Overcast,0,2013-08-22 12:53:00
6:53 AM,55.0,54.0,96,29.95,10.0,Calm,Calm,-,N/A,,Overcast,0,2013-08-22 13:53:00
7:53 AM,55.0,54.0,96,29.95,10.0,Calm,Calm,-,N/A,,Overcast,0,2013-08-22 14:53:00
8:12 AM,55.4,53.6,94,29.94,1.8,Calm,Calm,-,N/A,,Overcast,0,2013-08-22 15:12:00
8:41 AM,53.6,53.6,100,29.94,0.5,NW,4.6,-,N/A,Fog,Fog,310,2013-08-22 15:41:00
8:53 AM,54.0,54.0,100,29.96,0.5,WNW,4.6,-,N/A,Fog,Fog,300,2013-08-22 15:53:00
9:16 AM,53.6,53.6,100,29.95,0.2,NW,3.5,-,N/A,Fog,Fog,310,2013-08-22 16:16:00
9:26 AM,53.6,53.6,100,29.95,0.5,WNW,4.6,-,N/A,Fog,Fog,300,2013-08-22 16:26:00
9:32 AM,55.4,55.4,100,29.96,0.2,WNW,4.6,-,N/A,Fog,Fog,300,2013-08-22 16:32:00
9:40 AM,55.4,53.6,94,29.96,0.2,West,4.6,-,N/A,Fog,Fog,280,2013-08-22 16:40:00
9:53 AM,54.0,54.0,100,29.98,0.2,WNW,4.6,-,N/A,Fog,Fog,290,2013-08-22 16:53:00
10:08 AM,53.6,53.6,100,29.97,0.5,Calm,Calm,-,N/A,Fog,Fog,0,2013-08-22 17:08:00
10:20 AM,53.6,53.6,100,29.97,2.0,West,3.5,-,N/A,,Overcast,260,2013-08-22 17:20:00
10:30 AM,55.4,55.4,100,29.98,9.0,WNW,3.5,-,N/A,,Overcast,300,2013-08-22 17:30:00
10:53 AM,55.9,54.0,93,29.99,10.0,Calm,Calm,-,N/A,,Overcast,0,2013-08-22 17:53:00
11:01 AM,55.4,53.6,94,29.98,10.0,Calm,Calm,-,N/A,,Overcast,0,2013-08-22 18:01:00
11:27 AM,59.0,53.6,82,29.98,10.0,Variable,3.5,-,N/A,,Overcast,0,2013-08-22 18:27:00
11:53 AM,60.1,53.1,78,30.00,10.0,NNW,6.9,-,N/A,,Overcast,330,2013-08-22 18:53:00
12:53 PM,57.9,54.0,87,30.02,10.0,NNW,9.2,-,N/A,Thunderstorm,Overcast,330,2013-08-22 19:53:00
1:11 PM,59.0,53.6,82,30.00,10.0,Calm,Calm,-,N/A,,Overcast,0,2013-08-22 20:11:00
1:53 PM,61.0,54.0,78,29.99,10.0,SSW,9.2,-,N/A,,Scattered Clouds,210,2013-08-22 20:53:00
2:53 PM,61.0,54.0,78,29.98,10.0,West,9.2,-,N/A,,Clear,260,2013-08-22 21:53:00
3:53 PM,59.0,54.0,83,29.99,10.0,NNW,10.4,-,N/A,,Clear,330,2013-08-22 22:53:00
4:53 PM,61.0,53.1,75,29.98,10.0,NW,6.9,-,N/A,,Mostly Cloudy,320,2013-08-22 23:53:00
5:44 PM,57.2,53.6,88,29.96,10.0,NW,6.9,-,N/A,,Overcast,320,2013-08-23 00:44:00
5:53 PM,57.9,53.1,84,29.98,10.0,NNW,6.9,-,N/A,,Overcast,330,2013-08-23 00:53:00
6:00 PM,57.2,53.6,88,29.96,10.0,NNW,6.9,-,N/A,,Overcast,330,2013-08-23 01:00:00
6:53 PM,57.0,53.1,87,29.98,10.0,NNW,8.1,-,N/A,,Overcast,340,2013-08-23 01:53:00
7:38 PM,55.4,53.6,94,29.96,10.0,North,4.6,-,N/A,,Overcast,350,2013-08-23 02:38:00
7:53 PM,57.0,53.1,87,29.97,10.0,NNE,3.5,-,N/A,,Overcast,30,2013-08-23 02:53:00
8:27 PM,57.2,53.6,88,29.95,10.0,Calm,Calm,-,N/A,,Overcast,0,2013-08-23 03:27:00
8:53 PM,57.0,54.0,89,29.98,10.0,Calm,Calm,-,N/A,,Overcast,0,2013-08-23 03:53:00
9:53 PM,55.0,54.0,96,30.00,10.0,NNW,4.6,-,N/A,,Overcast,330,2013-08-23 04:53:00
10:08 PM,53.6,53.6,100,29.98,10.0,NNW,5.8,-,N/A,,Overcast,330,2013-08-23 05:08:00
10:45 PM,53.6,53.6,100,29.96,10.0,Calm,Calm,-,N/A,,Scattered Clouds,0,2013-08-23 05:45:00
10:53 PM,53.1,52.0,96,29.98,10.0,SE,3.5,-,N/A,,Partly Cloudy,130,2013-08-23 05:53:00
11:53 PM,53.1,52.0,96,29.99,9.0,NW,5.8,-,N/A,,Scattered Clouds,320,2013-08-23 06:53:00